Location: Carabito
(9.8355°N, 67.9249°W)
Time: 11:51:43
(UTC+00:00)

Lacrosse 5 rocket - Pass Details

Date: 23 May 2024
Orbit: 445 x 572 km, 57.0° (Epoch: 20 June)

Event Time Altitude Azimuth Distance (km) Brightness Sun altitude
Rises 07:52:05 0° 352° (N) 2,591 5.0 -31.4°
Reaches altitude 10° 07:54:51 10° 13° (NNE) 1,679 4.3 -30.8°
Maximum altitude 07:57:25 17° 56° (NE) 1,263 3.9 -30.3°
Drops below altitude 10° 07:59:56 10° 99° (E) 1,631 4.3 -29.7°
Sets 08:02:33 0° 120° (ESE) 2,484 5.0 -29.2°
